When you browse on this site, cookies collect data to enhance your experience and personalize the content and advertising you see.
Visit our Privacy Policy to learn more. By continuing to use the site, you agree to this use of cookies and data.
  • In Hungary
  • List of Countries
  • For 7 days
  • Water Temperature
  • Satellite Maps
  • Weather Map
  • News
  • Weather Widgets
  • user-avatar
    Login

    Hourly Weather Vivchyts'k

    Today, 16 July, Tuesday

    Time Temperature Precipitation Wind Pressure Humidity
    00:00 +14°C° 0 mm 1 mps 742 mmHg 84%
    01:00 +13°C° 0 mm 1 mps 742 mmHg 86%
    02:00 +13°C° 0 mm 1 mps 742 mmHg 84%
    03:00 +13°C° 0 mm 2 mps 742 mmHg 86%
    04:00 +13°C° 0 mm 2 mps 741 mmHg 87%
    05:00 +13°C° 0 mm 2 mps 741 mmHg 89%
    06:00 +14°C° 0 mm 2 mps 741 mmHg 84%
    07:00 +16°C° 0 mm 2 mps 741 mmHg 80%
    08:00 +18°C° 0 mm 2 mps 742 mmHg 75%
    09:00 +19°C° 0.2 mm 3 mps 741 mmHg 69%
    10:00 +21°C° 0.2 mm 3 mps 741 mmHg 63%
    11:00 +22°C° 0.2 mm 4 mps 741 mmHg 57%
    12:00 +22°C° 0 mm 4 mps 741 mmHg 56%
    13:00 +23°C° 0 mm 4 mps 741 mmHg 54%
    14:00 +23°C° 0 mm 5 mps 740 mmHg 52%
    15:00 +22°C° 0.2 mm 5 mps 740 mmHg 59%
    16:00 +21°C° 0.2 mm 6 mps 740 mmHg 66%
    17:00 +20°C° 0.2 mm 6 mps 740 mmHg 73%
    18:00 +17°C° 0.2 mm 5 mps 740 mmHg 76%
    19:00 +17°C° 0.2 mm 4 mps 740 mmHg 80%
    20:00 +14°C° 0.2 mm 3 mps 740 mmHg 83%
    21:00 +13°C° 0 mm 3 mps 740 mmHg 84%
    22:00 +13°C° 0 mm 3 mps 740 mmHg 85%
    23:00 +12°C° 0 mm 3 mps 740 mmHg 86%

    Tomorrow, 17 July, Wednesday

    Time Temperature Precipitation Wind Pressure Humidity
    00:00 +12°C° 0 mm 3 mps 740 mmHg 86%
    01:00 +12°C° 0 mm 4 mps 740 mmHg 87%
    02:00 +12°C° 0 mm 4 mps 740 mmHg 88%
    03:00 +11°C° 0 mm 4 mps 740 mmHg 91%
    04:00 +11°C° 0 mm 4 mps 740 mmHg 94%
    05:00 +11°C° 0 mm 4 mps 740 mmHg 97%
    06:00 +12°C° 0 mm 4 mps 740 mmHg 93%
    07:00 +13°C° 0 mm 4 mps 740 mmHg 89%
    08:00 +14°C° 0 mm 4 mps 739 mmHg 86%
    09:00 +15°C° 0.8 mm 5 mps 739 mmHg 83%
    10:00 +15°C° 0.8 mm 5 mps 739 mmHg 81%
    11:00 +16°C° 0.8 mm 6 mps 739 mmHg 78%
    12:00 +17°C° 0.8 mm 6 mps 739 mmHg 75%
    13:00 +17°C° 0.8 mm 6 mps 739 mmHg 72%
    14:00 +19°C° 0.8 mm 6 mps 739 mmHg 69%
    15:00 +19°C° 0.4 mm 6 mps 739 mmHg 70%
    16:00 +19°C° 0.4 mm 6 mps 739 mmHg 70%
    17:00 +19°C° 0.4 mm 6 mps 739 mmHg 70%
    18:00 +17°C° 0.1 mm 6 mps 739 mmHg 75%
    19:00 +16°C° 0.1 mm 5 mps 739 mmHg 80%
    20:00 +15°C° 0.1 mm 4 mps 739 mmHg 85%
    21:00 +14°C° 0 mm 4 mps 739 mmHg 88%
    22:00 +13°C° 0 mm 3 mps 739 mmHg 91%
    23:00 +12°C° 0 mm 3 mps 740 mmHg 94%

    Day after tomorrow, 18 July, Thursday

    Time Temperature Precipitation Wind Pressure Humidity
    00:00 +11°C° 0 mm 3 mps 740 mmHg 94%
    01:00 +11°C° 0 mm 3 mps 740 mmHg 94%
    02:00 +11°C° 0 mm 3 mps 740 mmHg 95%
    03:00 +10°C° 0 mm 3 mps 740 mmHg 95%
    04:00 +10°C° 0 mm 3 mps 740 mmHg 95%
    05:00 +10°C° 0 mm 3 mps 740 mmHg 96%
    06:00 +11°C° 0 mm 4 mps 740 mmHg 91%
    07:00 +13°C° 0 mm 4 mps 740 mmHg 87%
    08:00 +14°C° 0 mm 5 mps 741 mmHg 82%
    09:00 +15°C° 0 mm 5 mps 741 mmHg 80%
    10:00 +15°C° 0 mm 5 mps 741 mmHg 79%
    11:00 +16°C° 0 mm 5 mps 741 mmHg 77%
    12:00 +17°C° 0.1 mm 5 mps 741 mmHg 74%
    13:00 +19°C° 0.1 mm 5 mps 741 mmHg 70%
    14:00 +20°C° 0.1 mm 5 mps 741 mmHg 67%
    15:00 +21°C° 0.3 mm 5 mps 741 mmHg 68%
    16:00 +21°C° 0.3 mm 5 mps 741 mmHg 69%
    17:00 +21°C° 0.3 mm 4 mps 741 mmHg 70%
    18:00 +20°C° 0.3 mm 4 mps 741 mmHg 75%
    19:00 +19°C° 0.3 mm 3 mps 741 mmHg 81%
    20:00 +17°C° 0.3 mm 3 mps 741 mmHg 86%
    21:00 +17°C° 0 mm 3 mps 742 mmHg 88%
    22:00 +16°C° 0 mm 3 mps 742 mmHg 91%
    23:00 +14°C° 0 mm 3 mps 742 mmHg 93%

    19 July, Friday

    Time Temperature Precipitation Wind Pressure Humidity
    00:00 +14°C° 0 mm 2 mps 742 mmHg 93%
    01:00 +14°C° 0 mm 2 mps 743 mmHg 94%
    02:00 +14°C° 0 mm 2 mps 743 mmHg 94%
    03:00 +13°C° 0 mm 2 mps 743 mmHg 94%
    04:00 +13°C° 0 mm 2 mps 743 mmHg 94%
    05:00 +13°C° 0 mm 2 mps 743 mmHg 94%
    06:00 +15°C° 0 mm 2 mps 743 mmHg 89%
    07:00 +17°C° 0 mm 2 mps 744 mmHg 85%
    08:00 +18°C° 0 mm 2 mps 744 mmHg 80%
    09:00 +20°C° 0.3 mm 2 mps 744 mmHg 74%
    10:00 +21°C° 0.3 mm 2 mps 744 mmHg 69%
    11:00 +23°C° 0.3 mm 2 mps 744 mmHg 63%
    12:00 +24°C° 0.4 mm 2 mps 744 mmHg 61%
    13:00 +24°C° 0.4 mm 2 mps 744 mmHg 58%
    14:00 +25°C° 0.4 mm 2 mps 744 mmHg 55%
    15:00 +25°C° 0 mm 2 mps 744 mmHg 54%
    16:00 +25°C° 0 mm 2 mps 744 mmHg 53%
    17:00 +25°C° 0 mm 1 mps 744 mmHg 51%
    18:00 +24°C° 0 mm 1 mps 744 mmHg 58%
    19:00 +22°C° 0 mm 1 mps 744 mmHg 65%
    20:00 +21°C° 0 mm 1 mps 744 mmHg 71%
    21:00 +20°C° 0 mm 1 mps 744 mmHg 74%
    22:00 +19°C° 0 mm 1 mps 744 mmHg 77%
    23:00 +18°C° 0 mm 1 mps 745 mmHg 80%

    20 July, Saturday

    Time Temperature Precipitation Wind Pressure Humidity
    00:00 +15°C° 0 mm 0 mps 745 mmHg 81%
    01:00 +15°C° 0 mm 0 mps 745 mmHg 82%
    02:00 +15°C° 0 mm 0 mps 745 mmHg 83%
    03:00 +14°C° 0 mm 0 mps 745 mmHg 83%
    04:00 +14°C° 0 mm 0 mps 745 mmHg 82%
    05:00 +15°C° 0 mm 1 mps 745 mmHg 82%
    06:00 +18°C° 0 mm 1 mps 745 mmHg 78%
    07:00 +20°C° 0 mm 1 mps 745 mmHg 73%
    08:00 +21°C° 0 mm 1 mps 746 mmHg 69%
    09:00 +23°C° 0 mm 1 mps 746 mmHg 65%
    10:00 +24°C° 0 mm 1 mps 746 mmHg 60%
    11:00 +26°C° 0 mm 1 mps 746 mmHg 56%
    12:00 +26°C° 0.3 mm 1 mps 746 mmHg 55%
    13:00 +26°C° 0.3 mm 1 mps 746 mmHg 54%
    14:00 +27°C° 0.3 mm 1 mps 746 mmHg 53%
    15:00 +26°C° 0.3 mm 1 mps 746 mmHg 60%
    16:00 +25°C° 0.3 mm 2 mps 746 mmHg 66%
    17:00 +24°C° 0.3 mm 2 mps 745 mmHg 73%
    18:00 +23°C° 0.3 mm 2 mps 745 mmHg 76%
    19:00 +22°C° 0.3 mm 1 mps 745 mmHg 79%
    20:00 +21°C° 0.3 mm 1 mps 745 mmHg 82%
    21:00 +20°C° 0 mm 1 mps 746 mmHg 84%
    22:00 +19°C° 0 mm 1 mps 746 mmHg 86%
    23:00 +18°C° 0 mm 1 mps 746 mmHg 88%

    21 July, Sunday

    Time Temperature Precipitation Wind Pressure Humidity
    00:00 +18°C° 0 mm 1 mps 746 mmHg 89%
    01:00 +18°C° 0 mm 1 mps 746 mmHg 90%
    02:00 +16°C° 0 mm 1 mps 746 mmHg 91%
    03:00 +16°C° 0 mm 1 mps 746 mmHg 91%
    04:00 +16°C° 0 mm 1 mps 746 mmHg 92%
    05:00 +16°C° 0 mm 1 mps 746 mmHg 92%
    06:00 +18°C° 0 mm 1 mps 747 mmHg 87%
    07:00 +19°C° 0 mm 2 mps 747 mmHg 83%
    08:00 +21°C° 0 mm 2 mps 747 mmHg 78%
    09:00 +23°C° 0 mm 2 mps 747 mmHg 72%
    10:00 +25°C° 0 mm 1 mps 747 mmHg 66%
    11:00 +26°C° 0 mm 1 mps 748 mmHg 60%
    12:00 +27°C° 0.1 mm 1 mps 748 mmHg 58%
    13:00 +27°C° 0.1 mm 2 mps 748 mmHg 56%
    14:00 +28°C° 0.1 mm 2 mps 747 mmHg 53%
    15:00 +28°C° 0.1 mm 1 mps 747 mmHg 55%
    16:00 +28°C° 0.1 mm 1 mps 747 mmHg 56%
    17:00 +28°C° 0.1 mm 1 mps 747 mmHg 58%
    18:00 +26°C° 0 mm 1 mps 747 mmHg 64%
    19:00 +25°C° 0 mm 1 mps 747 mmHg 70%
    20:00 +23°C° 0 mm 1 mps 747 mmHg 76%
    21:00 +22°C° 0 mm 1 mps 748 mmHg 78%
    22:00 +20°C° 0 mm 2 mps 748 mmHg 80%
    23:00 +19°C° 0 mm 2 mps 748 mmHg 82%
    Show more